SCP
0 0 0 0 0 0 0 0 0 0 0 0 0 0 0 0 0 0 0 0 0 0 0 0 0 0 0 0 0 0 0 0 0 0 0 0 0 0 0 0 0 0 0 0
0 0 0 0 0 0 0 0 0 0 0 0 0 0 0 0 0 0 0 0 0 0 0 0 0 0 0 0 0 0 0 0 0 0 0 0 0 0 0 0 0 0 0 0
0 0 0 0 0 0 0 0 0 0 0 0 0 0 0 0 0 0 0 0 0 0 0 0 0 0 0 0 0 0 0 0 0 0 0 0 0 0 0 0 0 0 0 0
0 0 0 0 0 0 0 0 0 0 0 0 0 0 0 0 0 0 0 0 0 0 0 0 0 0 0 0 0 0 0 0 0 0 0 0 0 0 0 0 0 0 0 0
0 0 0 0 0 0 0 0 0 0 0 0 0 0 0 0 0 0 0 0 0 0 0 0 0 0 0 0 0 0 0 0 0 0 0 0 0 0 0 0 0 0 0 0
0 0 0 0 0 0 0 0 0 0 0 0 0 0 0 0 0 0 0 0 0 0 0 0 0 0 0 0 0 0 0 0 0 0 0 0 0 0 0 0 0 0 0 0
0 0 0 0 0 0 0 0 0 0 0 0 0 0 0 0 0 0 0 0 0 0 0 0 0 0 0 0 0 0 0 0 0 0 0 0 0 0 0 0 0 0 0 0
0 0 0 0 0 0 0 0 0 0 0 0 0 0 0 0 0 0 0 0 0 0 0 0 0 0 0 0 0 0 0 0 0 0 0 0 0 0 0 0 0 0 0 0
0 0 0 0 0 0 0 0 0 0 0 0 0 0 0 0 0 0 0 0 0 0 0 0 0 0 0 0 0 0 0 0 0 0 0 0 0 0 0 0 0 0 0 0
0 0 0 0 0 0 0 0 0 0 0 0 0 0 0 0 0 0 0 0 0 0 0 0 0 0 0 0 0 0 0 0 0 0 0 0 0 0 0 0 0 0 0 0
0 0 0 0 0 0 0 0 0 0 0 0 0 0 0 0 0 0 0 0 0 0 0 0 0 0 0 0 0 0 0 0 0 0 0 0 0 0 0 0 0 0 0 0
0 0 0 0 0 0 0 0 0 0 0 0 0 0 0 0 0 0 0 0 0 0 0 0 0 0 0 0 0 0 0 0 0 0 0 0 0 0 0 0 0 0 0 0
0 0 0 0 0 0 0 0 0 0 0 0 0 0 0 0 0 0 0 0 0 0 0 0 0 0 0 0 0 0 0 0 0 0 0 0 0 0 0 0 0 0 0 0
0 0 0 0 0 0 0 0 -0 -0 0 0 0 0 0 0 0 0 0 0 0 0 0 0 0 0 0 0 0 0 0 0 0 0 0 0 0 0 0 0 0 0 0 0
0 0 0 0 0 0 0 0 -0 0 0 0 0 0 0 0 0 0 0 0 0 0 0 0 0 0 0 0 0 0 0 0 0 0 0 0 0 0 0 0 0 0 0 0
0 0 0 0 0 0 0 0 0 0 0 0 0 0 0 0 0 0 0 0 0 0 0 0 0 0 0 0 0 0 0 0 0 0 0 0 0 0 0 0 0 0 0 0
0 0 0 0 0 0 0 0 0 0 0 0 0 0 0 0 0 0 0 0 0 0 0 0 0 0 0 0 0 0 0 0 0 0 0 0 0 0 0 0 0 0 0 0
0 0 0 0 0 0 0 0 0 0 0 0 0 0 0 0 0 0 0 0 0 0 0 0 0 0 0 0 0 0 0 0 0 0 0 0 0 0 0 0 0 0 0 0
0 0 0 0 0 0 0 0 0 0 0 0 0 0 0 0 0 0 0 0 0 0 0 0 0 0 0 0 0 0 0 0 0 0 0 0 0 0 0 0 0 0 0 0
0 0 0 0 0 0 0 0 0 0 0 0 0 0 0 0 0 0 0 0 0 0 0 0 0 0 0 0 0 0 0 0 0 0 0 0 0 0 0 0 0 0 0 0
0 0 0 0 0 0 0 0 0 0 0 0 0 0 0 0 0 0 0 0 0 0 0 0 0 0 0 0 0 0 0 0 0 0 0 0 0 0 0 0 0 0 0 0
0 0 0 0 0 0 0 0 0 0 0 0 0 0 0 0 0 0 0 0 0 0 0 0 0 0 0 0 0 0 0 0 0 0 0 0 0 0 0 0 0 0 0 0
0 0 0 0 0 0 0 0 0 0 0 0 0 0 0 0 0 0 0 0 0 0 0 0 0 0 0 0 0 0 0 0 0 0 0 0 0 0 0 0 0 0 0 0
0 0 0 0 0 0 0 0 0 0 0 0 0 0 0 0 0 0 0 0 0 0 0 0 0 0 0 0 0 0 0 0 0 0 0 0 0 0 0 0 0 0 0 0
0 0 0 0 0 0 0 0 0 0 0 0 0 0 0 0 0 0 0 0 0 0 0 0 0 0 0 0 0 0 0 0 0 0 0 0 0 0 0 0 0 0 0 0
0 0 0 0 0 0 0 0 0 0 0 0 0 0 0 0 0 0 0 0 0 0 0 0 0 0 0 0 0 0 0 0 0 0 0 0 0 0 0 0 0 0 0 0
Wind_Speed
2 1 1 3 5 6 6 7 7 6 5 5 6 6 5 4 3 3 3 3 2 2 2 2 2 1 1 1 1 2 3 4 3 2 2 2 1 1 0 1 2 3 3 3
1 1 3 4 4 4 5 5 5 4 3 4 5 6 5 4 4 3 3 2 2 2 2 2 2 1 1 1 1 3 4 4 4 3 2 1 1 1 1 1 2 2 3 3
1 2 2 2 2 4 4 5 4 4 3 3 4 5 5 5 4 3 3 3 2 3 2 2 2 2 1 1 1 2 3 3 3 3 2 2 1 1 1 1 1 2 3 3
1 2 2 2 3 4 5 4 4 3 3 2 4 4 5 5 4 4 4 4 4 3 3 2 2 2 2 2 1 1 1 2 2 3 4 4 3 3 3 2 2 2 3 3
1 3 3 3 4 5 4 4 4 4 3 3 3 5 4 3 5 6 5 5 4 3 3 2 2 1 1 2 2 0 1 1 2 3 3 4 3 2 2 2 2 2 2 3
2 2 2 4 5 4 3 3 2 3 3 5 5 5 4 3 5 4 3 3 3 3 2 2 1 1 1 2 2 1 1 0 1 2 2 3 3 3 3 3 2 2 2 2
2 1 1 2 3 1 0 1 1 2 3 3 3 5 5 1 2 3 3 3 3 3 2 1 1 1 1 1 2 1 0 0 1 2 2 2 3 3 3 3 3 2 2 3
2 1 3 3 3 2 1 1 1 2 3 2 3 6 1 2 2 2 2 2 2 3 2 2 2 1 1 2 1 1 1 1 1 1 2 2 2 2 2 2 2 2 2 2
2 2 2 3 3 2 1 1 1 1 2 4 4 3 1 2 3 3 4 3 3 3 3 2 2 2 2 2 2 1 1 1 1 1 2 2 2 2 2 2 2 2 2 2
2 3 3 3 2 1 2 1 2 2 2 4 4 4 2 1 3 3 4 4 4 4 3 3 2 2 2 2 2 2 1 1 1 1 1 1 1 1 1 2 2 2 2 2
2 2 2 1 1 1 1 1 1 2 2 4 3 2 2 1 2 3 4 4 4 4 4 4 3 3 2 2 2 2 1 1 1 1 1 1 1 1 1 1 2 1 2 2
2 2 3 2 1 2 2 2 2 3 2 3 3 1 3 3 3 4 4 4 4 4 4 4 3 3 2 2 2 2 2 2 1 1 1 0 0 1 1 1 1 1 2 2
1 1 2 1 3 2 1 2 2 2 3 3 4 2 2 3 5 5 5 5 5 4 4 4 3 3 3 3 3 3 2 3 2 1 1 0 0 0 1 1 1 1 1 2
0 2 4 4 3 2 4 4 3 4 4 4 6 6 5 6 6 6 6 5 5 5 4 3 3 3 3 3 3 3 3 3 2 1 1 1 1 0 0 0 0 1 2 2
1 3 3 5 5 4 6 7 6 7 7 6 5 6 7 7 6 6 6 5 5 5 5 4 4 4 3 3 3 3 3 3 3 2 2 2 1 1 0 0 1 1 1 2
1 2 2 4 3 3 6 7 7 8 7 9 8 9 6 6 5 5 5 4 4 5 5 5 5 4 4 4 4 4 4 4 3 2 2 2 1 1 0 1 1 1 1 1
1 1 2 3 3 4 6 5 7 5 5 6 8 7 5 4 4 5 4 3 4 5 5 5 5 4 4 4 4 4 4 3 3 2 2 2 1 1 1 1 1 1 1 1
3 2 2 3 3 5 0 1 3 6 6 6 6 6 6 6 6 5 4 4 5 5 5 5 5 5 4 4 3 3 3 3 2 2 2 2 1 1 1 1 1 1 1 1
3 3 2 2 4 7 3 2 2 4 6 5 7 7 6 5 4 3 2 3 4 5 5 5 5 5 4 3 3 3 2 2 2 2 2 2 1 1 1 0 0 0 1 1
1 2 3 3 4 6 1 1 1 2 5 2 4 5 5 4 4 3 3 3 4 4 4 4 4 4 3 3 2 2 2 2 2 3 3 3 1 0 0 0 0 0 1 1
2 3 4 5 6 7 1 1 3 4 3 2 3 4 4 3 4 5 4 3 3 4 4 4 4 3 3 3 2 2 2 2 3 3 3 3 2 1 0 1 1 1 1 2
5 5 6 5 6 7 3 4 5 3 3 3 4 4 4 5 5 5 4 4 3 3 4 3 3 3 3 2 2 2 2 3 3 2 2 2 1 1 0 1 1 1 2 2
7 6 4 7 6 2 5 5 4 3 4 4 5 5 5 5 5 5 4 4 3 3 3 3 3 3 3 2 2 2 2 2 2 2 2 2 1 1 0 1 1 1 1 2
5 4 5 6 9 8 7 7 7 6 6 6 6 6 5 6 6 5 4 4 3 3 3 3 3 3 3 3 2 2 2 2 1 1 1 1 0 1 1 0 1 1 1 2
5 6 5 8 8 7 7 8 8 7 6 6 6 5 5 5 6 5 4 4 3 3 3 2 3 3 3 3 3 2 2 1 1 1 1 0 0 0 1 1 1 0 0 0
7 9 8 8 6 6 5 4 6 7 7 6 6 5 4 5 5 5 4 3 3 3 2 2 3 3 3 3 3 2 2 2 2 1 1 0 0 0 0 1 1 3 2 2
Wind_Direction
37 48 243 261 249 258 251 245 243 252 256 244 230 244 250 241 223 223 224 226 231 262 288 317 319 289 247 239 205 196 185 163 152 155 164 167 177 161 174 167 158 171 167 167
126 288 276 277 260 258 250 247 253 259 259 245 236 256 255 234 228 227 228 237 246 295 328 352 350 354 260 226 209 195 182 175 175 178 182 185 181 188 187 200 170 175 176 172
193 306 297 281 289 266 256 248 260 267 281 241 243 246 236 230 228 229 238 246 256 273 280 306 324 339 333 315 266 215 185 179 177 164 143 127 134 147 167 193 195 193 186 179
311 308 304 281 285 286 262 257 261 246 240 246 251 249 230 233 235 249 243 243 250 257 265 279 299 313 323 329 310 239 192 173 168 172 169 173 189 197 218 211 211 196 191 184
320 314 315 292 289 281 270 275 248 232 230 247 241 246 237 222 244 251 244 246 249 257 267 270 273 282 317 342 338 260 163 169 172 187 186 185 196 203 199 193 195 191 184 181
302 295 294 288 287 268 275 242 215 226 229 237 226 236 242 218 246 252 246 253 266 283 280 278 289 301 338 354 359 3 132 122 189 185 199 197 197 195 191 194 191 198 191 183
348 39 12 305 310 199 281 194 192 197 215 231 208 230 242 226 266 271 267 271 277 295 303 300 301 303 326 342 351 358 60 179 223 205 204 206 203 201 203 199 197 203 204 196
325 331 17 0 339 300 247 223 262 256 242 257 222 232 241 30 12 336 319 322 341 332 318 299 287 292 303 309 314 326 321 281 252 224 224 210 200 203 215 224 220 217 217 205
323 305 346 344 324 296 222 200 308 290 269 242 227 246 237 349 349 347 345 350 344 339 333 323 325 318 308 302 301 291 287 292 278 240 226 221 211 215 221 223 223 226 223 202
306 281 304 326 288 15 322 195 212 231 250 248 243 240 249 309 314 332 338 337 338 337 337 341 334 318 316 318 310 296 292 289 284 279 235 232 222 219 216 219 218 221 214 201
291 267 290 271 297 299 273 180 245 230 278 267 255 252 39 324 330 324 327 325 325 332 334 338 334 326 328 336 334 323 317 321 316 324 279 248 207 205 205 207 212 221 202 194
328 284 277 276 294 303 289 266 239 251 241 265 267 279 56 354 344 336 334 334 334 335 334 334 339 339 350 354 351 344 336 333 322 319 311 273 179 190 210 207 209 200 194 189
270 242 278 200 174 174 261 273 265 266 245 239 243 245 56 360 346 348 344 342 341 335 337 339 349 344 346 353 353 343 345 342 338 346 333 343 281 210 223 221 203 171 169 174
318 239 252 270 297 264 262 263 246 228 234 237 243 273 301 321 331 336 337 337 338 335 341 344 343 343 343 345 347 345 351 353 351 353 338 290 300 309 263 206 170 160 161 168
287 254 258 277 276 264 263 261 233 221 237 247 256 270 291 307 315 321 324 328 338 345 348 347 340 341 341 344 346 345 350 355 355 355 351 334 340 347 11 136 136 141 157 167
323 264 275 271 245 271 271 265 245 240 242 250 263 277 299 305 307 310 317 321 332 337 337 337 343 343 338 337 340 340 343 347 346 352 354 347 2 359 32 100 126 132 137 147
211 218 263 267 311 283 256 249 223 221 225 233 250 273 307 305 303 304 305 309 320 326 328 328 331 338 335 329 330 327 330 333 341 352 357 354 29 26 30 106 133 143 152 150
184 193 252 284 298 248 1 99 232 232 246 243 263 284 296 292 298 301 296 304 314 320 319 321 326 329 328 325 326 326 329 333 343 351 355 355 15 30 31 81 125 152 161 167
215 196 222 245 266 274 271 214 213 233 265 255 256 276 295 305 294 285 299 312 309 309 312 315 317 320 323 327 334 333 331 338 348 349 348 348 351 6 21 61 100 136 153 160
115 195 216 216 247 258 311 87 273 236 265 263 251 268 288 308 286 320 346 322 313 316 317 316 319 323 325 328 332 328 328 336 341 337 333 334 324 310 279 237 175 167 153 150
175 192 217 226 245 267 301 158 192 222 294 329 268 268 272 270 279 313 318 311 314 316 316 318 320 320 319 321 321 311 317 323 324 326 327 326 316 310 265 208 182 155 142 138
196 193 200 205 225 250 144 160 206 261 316 286 284 281 276 281 286 294 299 304 313 315 315 320 321 318 320 318 306 302 311 318 321 327 326 322 320 323 278 156 145 150 149 142
217 214 211 212 232 293 186 217 246 266 266 280 286 285 278 278 281 288 290 294 300 304 309 314 314 312 316 316 305 295 307 315 315 322 321 319 329 341 95 154 151 148 154 154
221 212 233 250 255 256 249 252 259 258 261 275 280 280 274 271 276 279 281 286 291 297 302 307 308 307 312 320 315 299 298 295 292 300 309 311 5 30 50 94 146 165 169 165
221 187 219 251 267 275 254 246 252 256 261 269 276 272 267 263 268 270 272 275 279 287 294 294 292 295 302 311 311 308 297 281 275 277 285 319 23 50 73 63 52 67 80 187
205 200 209 240 236 238 260 260 250 252 261 268 272 273 269 260 264 267 268 267 265 269 277 280 283 284 292 299 303 306 296 270 251 249 264 300 337 120 134 109 74 59 70 58